Location: Vassar Physics Lab
(41.6843°N, 73.8954°W)
Time: 12:39:50
(UTC-04:00)

CZ-4B DEB - Visible Passes

Search period start: 21 May 2018 00:00
Search period end: 31 May 2018 00:00
Orbit: 841 x 862 km, 99.0° (Epoch: 20 May)

Date Brightness Start Highest point End Pass type
(mag) Time Alt. Az. Time Alt. Az. Time Alt. Az.
23 May 5.4 04:53:21 10° NNE 04:58:35 44° E 05:03:47 10° S visible
24 May 5.8 04:41:58 10° NNE 04:46:58 35° E 04:51:55 10° SSE visible
25 May 6.1 04:30:40 10° NE 04:35:19 28° E 04:39:56 10° SSE visible
26 May 6.5 04:19:28 10° NE 04:23:39 22° E 04:27:48 10° SE visible
27 May 6.7 04:08:25 10° NE 04:11:58 17° E 04:15:29 10° SE visible
28 May 6.8 03:57:40 10° ENE 04:00:15 13° E 04:02:49 10° ESE visible
